Карточка аэропорта UHPP

Внимание!
Информация на этой странице в стадии наполнения.
Если вы не увидели какой-то информации, или заметили неточность - пожалуйста сообщите нам!
Спасибо!
Команда RU-STAFF
Название аэропортаЕлизово
Название аэропорта (англ.)Yelizovo
Превышение131 ft. (39.9 m.)
Координаты53°10.2', 158°27.6'
Высота перехода2400m
Эшелон переходаQFE > 759 mmHg - FL090; 729 mmHg < QFE < 759 mmHg - FL100; QFE < 729 mmHg - FL110
Коды ответчика6630-6657
Зона ОрВДМагадан РПИ (UHMM)
Данные METARUHPP 160800Z 18006MPS 9999 SCT067 11/05 Q1017 R16R/CLRD60 NOSIG RMK MT OBSC QFE759/1013
Проноз погоды (TAF)UHPP 160737Z 1609/1715 16005G12MPS 9999 SCT040 BECMG 1610/1612 36003G08MPS BKN011 TEMPO 1612/1622 0700 FG VV002 BECMG 1622/1624 16005G12MPS BKN016
NOTAMshow/hide NOTAM
AWOS   TABLE

Информация о ВПП

ВПП Длина ВПП (м.) Покрытие Курс ВПП Частота ILS
34L2500Бетон344108.7
16R2500Бетон164109.9

Диспетчерские позиции

Позывной Наименование органа УВД Частота
UHPP_TWRПетропавловск - Старт118.100
UHPP_GNDПетропавловск - Руление127.000
UHPP_R_APPПетропавловск - Круг119.400
UHPP_ATISПетропавловск - АТИС126.800



Спутниковое изображение